Theta_e
319 328 332 332 334 334 334 336 338 337 339 339 339 339 341 339 339 333 329 326 323 318
316 321 327 330 333 334 335 336 337 337 337 338 339 341 341 339 336 334 328 325 320 316
315 320 325 329 331 333 333 335 335 337 337 338 339 340 340 338 335 330 324 321 316 313
317 322 325 327 330 332 333 334 335 337 337 337 337 339 337 335 330 327 321 317 316 312
318 319 319 323 326 330 332 334 334 336 337 338 336 335 335 331 328 326 319 316 315 313
313 314 316 319 323 329 332 333 335 336 336 337 334 333 333 331 327 325 320 316 316 315
309 311 313 316 320 328 331 333 335 335 334 334 334 333 332 330 326 322 318 317 317 315
309 311 313 316 318 324 329 332 334 333 331 331 332 331 329 327 323 319 315 316 316 315
310 311 311 314 317 321 327 331 333 332 332 330 331 315 316 323 321 318 315 314 313 313
308 309 310 314 317 319 325 329 329 331 331 330 330 310 310 314 321 317 315 314 313 313
308 309 311 313 314 317 324 327 328 330 331 328 326 308 306 310 318 316 314 313 312 310
308 308 309 310 312 315 322 326 327 329 328 327 315 306 305 314 315 313 312 310 307 307
308 308 309 311 312 315 319 322 325 326 327 320 314 304 305 312 315 310 307 304 302 304
307 307 309 312 314 317 319 321 320 322 323 320 314 307 305 306 313 310 306 302 300 302
Wind_Speed
8 5 7 9 9 8 7 8 11 11 12 14 15 16 12 8 7 7 6 8 6 4
7 7 8 10 9 9 9 8 11 13 13 15 15 15 12 10 9 9 7 7 6 4
8 8 8 7 10 12 11 11 11 14 15 16 16 15 12 9 8 10 6 5 7 5
7 7 7 7 10 12 12 11 12 15 16 17 15 15 13 12 10 11 9 6 8 8
7 8 8 9 11 11 12 10 13 14 16 18 17 13 11 12 12 13 12 10 8 9
7 8 10 10 11 11 12 11 11 13 16 18 17 16 14 11 11 11 11 13 12 10
8 8 10 11 11 11 12 12 11 14 15 15 14 14 14 13 10 9 9 11 11 12
8 9 11 12 11 12 11 12 12 13 15 15 13 11 13 14 14 12 10 10 10 10
8 11 13 13 9 11 11 13 13 17 17 17 12 17 19 15 12 12 12 11 7 7
9 11 12 12 10 12 12 12 16 15 15 17 16 20 19 19 12 13 13 12 11 8
9 11 12 11 11 13 10 12 11 14 18 16 12 23 22 21 14 12 12 13 13 12
9 10 11 12 11 12 7 10 11 10 14 15 11 24 24 20 13 13 13 11 11 13
9 9 11 11 11 10 6 8 6 8 10 14 14 24 25 20 12 13 10 9 9 16
7 9 12 12 8 7 7 4 5 9 5 13 17 20 26 22 14 12 11 11 8 8
Wind_Direction
260 240 235 233 224 220 200 208 217 208 209 196 190 219 222 216 188 192 187 179 176 170
298 260 242 239 223 224 207 208 212 211 212 215 208 201 204 212 192 180 165 189 172 161
287 282 259 247 233 219 215 213 201 207 214 216 212 202 194 199 186 175 163 186 154 162
299 290 290 270 257 237 220 209 206 208 212 214 203 189 184 181 168 171 159 153 166 164
309 309 299 285 270 253 228 213 211 210 212 215 202 187 174 160 162 173 165 159 168 159
289 292 290 288 287 265 242 221 218 214 213 207 195 185 182 161 164 176 166 165 170 167
280 282 284 284 288 276 252 227 215 223 208 198 185 175 166 151 164 158 161 168 169 170
269 279 287 285 277 276 260 237 211 216 205 183 175 156 156 157 156 164 159 164 166 171
271 276 282 279 271 272 259 241 217 211 204 188 178 157 156 155 155 161 159 160 152 159
257 267 274 279 280 273 252 244 230 214 197 187 183 155 155 153 158 161 160 157 152 152
258 265 274 276 268 267 256 240 225 211 210 183 179 157 150 153 153 148 153 156 155 146
256 260 267 271 261 264 252 236 206 200 182 169 153 150 145 146 146 150 152 153 145 146
256 248 263 265 264 265 258 222 174 213 202 149 148 152 153 147 148 151 146 141 143 150
237 246 255 259 251 251 230 158 163 189 210 165 162 165 155 154 155 154 153 148 155 156